Погода в Волжском

Россия / Самарская область     53°25′34″N   50°07′16″E
В апреле 2022 года жителям России запретили посещать сайт meteo.paraplan.net по решению Генеральной прокуратуры. Аудитория сайта уменьшилась в 10 раз. Владельцы сайта не видят смысла в поддержке погодного сервера в таких условиях. Сайт будет закрыт в октябре.
темп.,
°C
ветер,
м/с
пор.,
м/с
влажн.,
%
обл.,
%
осадки,
мм/ч
давл.,
гПа
погр.,
м
29 сентября, чт
чт2901:00+10юв61585100 0.1 1010525
04:00+11юв61488100 0.4 1009577
07:00+11юв41191100 0.1 1008446
10:00+12юв41092100 0.1 1009577
13:00+12вюв3595100 0.0 1009326
16:00+12всв1199100 1.4 100971
19:00+12сз119992 0.1 101128
22:00+12сз239893 0.1 101399
30 сентября, пт
пт3001:00+12ссз2398100 0.0 1015152
04:00+11ссв2498100 0.0 1016261
07:00+11св2395100 0.0 1019236
10:00+11св2388100 0.0 1020338
13:00+13ссв2378100 0.0 1022498
16:00+15ссв336995 0.0 1022862
19:00+13всв2372100 0.0 102351
22:00+11вюв358198 0.0 1024239
1 октября, сб
сб101:00+9в2383100 0.0 1024137
04:00+9в2381100 0.0 1024124
07:00+8в2381100 0.0 1025117
10:00+11вюв2270100 0.0 1024253
13:00+15вюв215970 0.0 1023793
16:00+15юв225895 0.0 1022884
19:00+11ююв2277100 0.0 102222
22:00+11ююв2277100 0.0 102132
2 октября, вс
вс201:00+11ююв2377100 0.0 102076
04:00+10ююв338697 0.0 102050
07:00+10ююв359161 0.4 1019103
10:00+15ю41172100 0.5 1018391
13:00+18ю6116489 0.0 1017577
16:00+20ю6105849 0.1 10151086
19:00+18ю5136688 0.8 1014437
22:00+16ю41180100 2.1 1014334
3 октября, пн
пн301:00+15ююз3794100 2.9 1014201
04:00+15ю31092100 3.9 1014276
07:00+12ююв3107433 0.0 1017280
10:00+17ю6116593 0.0 1017534
13:00+20ю694386 0.0 1018964
16:00+20ю6103829 0.0 10191025
19:00+15ююв5134333 0.0 1020419
22:00+15ююв5143893 0.0 1021462